AFL1459 URSS-URML

Flight info

Callsign AFL1459
Flight time 1h 10m
Altitude 29000
Route GUBOR G926 NAMEN G914 GASNI/K0837F370 W86 DUBKI DUBKI1J
Aircraft A320/M-SDE3FGHIRWY/LB1

Departure

Time 2026-04-20 18:06
Airport Sochi International Airport (URSS)

Arrival

Time 2026-04-20 19:16
Airport Makhachkala Uytash International Airport (URML)
Time Latitude Longitude Altitude Speed Heading
2026-04-20 17:16 43.44852 39.94497 75 ft 0 kts 335°
2026-04-20 17:52 43.44834 39.94508 60 ft 4 kts 336°
2026-04-20 17:53 43.44810 39.94523 72 ft 4 kts 338°
2026-04-20 17:53 43.44784 39.94536 72 ft 4 kts 342°
2026-04-20 17:53 43.44758 39.94545 64 ft 4 kts
2026-04-20 17:53 43.44738 39.94537 66 ft 2 kts 61°
2026-04-20 17:54 43.44737 39.94535 66 ft 0 kts 64°
2026-04-20 18:00 43.44738 39.94540 75 ft 3 kts 64°
2026-04-20 18:00 43.44747 39.94563 65 ft 0 kts 64°
2026-04-20 18:00 43.44749 39.94569 67 ft 2 kts 64°
2026-04-20 18:00 43.44756 39.94590 66 ft 3 kts 64°
2026-04-20 18:01 43.44774 39.94642 68 ft 7 kts 65°
2026-04-20 18:01 43.44796 39.94705 69 ft 8 kts 64°
2026-04-20 18:01 43.44820 39.94775 69 ft 8 kts 65°
2026-04-20 18:01 43.44845 39.94850 64 ft 9 kts 65°
2026-04-20 18:02 43.44867 39.94915 70 ft 6 kts 64°
2026-04-20 18:02 43.44886 39.94971 67 ft 9 kts 66°
2026-04-20 18:02 43.44921 39.95072 83 ft 11 kts 64°
2026-04-20 18:02 43.44937 39.95133 84 ft 4 kts 84°
2026-04-20 18:03 43.44937 39.95144 85 ft 0 kts 95°
2026-04-20 18:04 43.44933 39.95153 82 ft 4 kts 113°
2026-04-20 18:04 43.44904 39.95186 84 ft 11 kts 151°
2026-04-20 18:05 43.44823 39.95145 80 ft 0 kts 246°
2026-04-20 18:06 43.44816 39.95122 82 ft 20 kts 245°
2026-04-20 18:06 43.44618 39.94546 70 ft 109 kts 245°
2026-04-20 18:06 43.44187 39.93291 98 ft 173 kts 244°
2026-04-20 18:06 43.43680 39.91796 930 ft 174 kts 246°
2026-04-20 18:07 43.43300 39.90190 1611 ft 185 kts 259°
2026-04-20 18:07 43.43158 39.88320 1872 ft 209 kts 271°
2026-04-20 18:07 43.43320 39.86217 2234 ft 233 kts 283°
2026-04-20 18:07 43.43879 39.84022 2763 ft 252 kts 297°
2026-04-20 18:08 43.44860 39.81987 3593 ft 259 kts 308°
2026-04-20 18:08 43.45984 39.80030 4502 ft 262 kts 308°
2026-04-20 18:08 43.47126 39.78031 5340 ft 269 kts 308°
2026-04-20 18:08 43.48272 39.76003 6188 ft 273 kts 307°
2026-04-20 18:09 43.49436 39.73915 7054 ft 276 kts 307°
2026-04-20 18:09 43.50604 39.71801 7946 ft 277 kts 307°
2026-04-20 18:09 43.51792 39.69691 8822 ft 280 kts 307°
2026-04-20 18:09 43.52991 39.67560 9696 ft 282 kts 307°
2026-04-20 18:10 43.54202 39.65391 10345 ft 293 kts 307°
2026-04-20 18:10 43.55495 39.63072 10573 ft 317 kts 307°
2026-04-20 18:10 43.56921 39.60609 10767 ft 340 kts 313°
2026-04-20 18:10 43.58783 39.58497 11186 ft 353 kts 328°
2026-04-20 18:11 43.61032 39.57073 11842 ft 359 kts 342°
2026-04-20 18:11 43.63503 39.56478 12539 ft 364 kts 357°
2026-04-20 18:11 43.66044 39.56665 13248 ft 368 kts
2026-04-20 18:11 43.68525 39.57609 13925 ft 373 kts 22°
2026-04-20 18:12 43.70765 39.59454 14519 ft 378 kts 38°
2026-04-20 18:12 43.72597 39.62101 15137 ft 383 kts 53°
2026-04-20 18:12 43.73921 39.65308 15732 ft 387 kts 66°
2026-04-20 18:12 43.74691 39.68896 16319 ft 391 kts 77°
2026-04-20 18:13 43.75240 39.72599 16899 ft 395 kts 77°
2026-04-20 18:13 43.75798 39.76327 17472 ft 398 kts 77°
2026-04-20 18:13 43.76363 39.80085 18037 ft 401 kts 77°
2026-04-20 18:13 43.76937 39.83883 18562 ft 404 kts 77°
2026-04-20 18:14 43.77505 39.87657 19042 ft 407 kts 77°
2026-04-20 18:14 43.78082 39.91506 19523 ft 410 kts 77°
2026-04-20 18:14 43.78635 39.95392 19995 ft 413 kts 78°
2026-04-20 18:14 43.79156 39.99326 20457 ft 417 kts 78°
2026-04-20 18:15 43.79657 40.03289 20912 ft 420 kts 79°
2026-04-20 18:15 43.80153 40.07290 21379 ft 423 kts 79°
2026-04-20 18:15 43.80654 40.11314 21809 ft 426 kts 79°
2026-04-20 18:15 43.81163 40.15369 22252 ft 428 kts 78°
2026-04-20 18:16 43.81682 40.19446 22687 ft 431 kts 78°
2026-04-20 18:16 43.82207 40.23542 23128 ft 434 kts 78°
2026-04-20 18:16 43.82734 40.27668 23533 ft 437 kts 79°
2026-04-20 18:16 43.83265 40.31830 23851 ft 440 kts 79°
2026-04-20 18:17 43.83796 40.36017 24194 ft 443 kts 79°
2026-04-20 18:17 43.84328 40.40242 24524 ft 446 kts 79°
2026-04-20 18:17 43.84858 40.44480 24838 ft 448 kts 79°
2026-04-20 18:17 43.85389 40.48748 25160 ft 451 kts 79°
2026-04-20 18:18 43.85922 40.53040 25491 ft 453 kts 79°
2026-04-20 18:18 43.86455 40.57352 25822 ft 456 kts 79°
2026-04-20 18:18 43.86992 40.61700 26144 ft 458 kts 79°
2026-04-20 18:18 43.87524 40.66004 26457 ft 460 kts 80°
2026-04-20 18:19 43.87838 40.70420 26732 ft 463 kts 88°
2026-04-20 18:19 43.87694 40.74882 27021 ft 465 kts 97°
2026-04-20 18:19 43.87194 40.79383 27314 ft 467 kts 99°
2026-04-20 18:19 43.86684 40.83831 27591 ft 469 kts 99°
2026-04-20 18:20 43.86185 40.88244 27885 ft 470 kts 99°
2026-04-20 18:20 43.85679 40.92736 28162 ft 473 kts 99°
2026-04-20 18:20 43.85171 40.97242 28445 ft 474 kts 99°
2026-04-20 18:20 43.84658 41.01748 28844 ft 473 kts 100°
2026-04-20 18:21 43.84138 41.06251 29044 ft 473 kts 100°
2026-04-20 18:21 43.83618 41.10733 29071 ft 470 kts 100°
2026-04-20 18:21 43.82583 41.19655 29073 ft 469 kts 100°
2026-04-20 18:22 43.81537 41.28581 29072 ft 469 kts 101°
2026-04-20 18:22 43.80482 41.37487 29076 ft 469 kts 101°
2026-04-20 18:23 43.79424 41.46393 29074 ft 469 kts 101°
2026-04-20 18:23 43.78368 41.55293 29069 ft 468 kts 101°
2026-04-20 18:24 43.77301 41.64185 29055 ft 468 kts 101°
2026-04-20 18:24 43.76233 41.73084 29052 ft 469 kts 102°
2026-04-20 18:25 43.75149 41.81989 29053 ft 470 kts 102°
2026-04-20 18:25 43.74056 41.90905 29054 ft 470 kts 102°
2026-04-20 18:26 43.72950 41.99824 29054 ft 471 kts 102°
2026-04-20 18:26 43.71838 42.08745 29042 ft 471 kts 103°
2026-04-20 18:27 43.70718 42.17693 29036 ft 473 kts 103°
2026-04-20 18:27 43.69595 42.26653 29042 ft 474 kts 103°
2026-04-20 18:28 43.68461 42.35621 29036 ft 474 kts 103°
2026-04-20 18:28 43.67319 42.44593 29014 ft 475 kts 103°
2026-04-20 18:29 43.66168 42.53523 29024 ft 475 kts 103°
2026-04-20 18:29 43.65001 42.62511 29023 ft 475 kts 104°
2026-04-20 18:30 43.63830 42.71495 29031 ft 476 kts 103°
2026-04-20 18:30 43.62653 42.80487 29034 ft 476 kts 103°
2026-04-20 18:31 43.61470 42.89473 29034 ft 475 kts 104°
2026-04-20 18:31 43.60285 42.98445 29039 ft 475 kts 104°
2026-04-20 18:32 43.59095 43.07384 29031 ft 474 kts 104°
2026-04-20 18:32 43.57889 43.16317 29024 ft 473 kts 104°
2026-04-20 18:33 43.56687 43.25238 28996 ft 473 kts 104°
2026-04-20 18:33 43.55483 43.34152 29002 ft 473 kts 104°
2026-04-20 18:34 43.54259 43.43067 29006 ft 473 kts 104°
2026-04-20 18:34 43.53034 43.51907 29011 ft 473 kts 104°
2026-04-20 18:35 43.51795 43.60804 29013 ft 473 kts 105°
2026-04-20 18:35 43.49744 43.69296 29010 ft 465 kts 117°
2026-04-20 18:36 43.47168 43.77471 29012 ft 465 kts 118°
2026-04-20 18:36 43.44586 43.85638 29003 ft 465 kts 118°
2026-04-20 18:37 43.41999 43.93807 28999 ft 465 kts 118°
2026-04-20 18:37 43.39437 44.01974 28996 ft 465 kts 117°
2026-04-20 18:38 43.36908 44.10160 29003 ft 465 kts 117°
2026-04-20 18:38 43.34372 44.18343 29004 ft 465 kts 118°
2026-04-20 18:39 43.31816 44.26510 29005 ft 465 kts 119°
2026-04-20 18:39 43.29272 44.34610 29024 ft 465 kts 119°
2026-04-20 18:40 43.26704 44.42752 29034 ft 465 kts 119°
2026-04-20 18:40 43.24128 44.50896 29042 ft 465 kts 118°
2026-04-20 18:41 43.23143 44.55157 29038 ft 474 kts 106°
2026-04-20 18:41 43.22824 44.59685 29024 ft 482 kts 94°
2026-04-20 18:41 43.23213 44.64279 29031 ft 490 kts 81°
2026-04-20 18:41 43.24335 44.68727 29032 ft 497 kts 66°
2026-04-20 18:42 43.26181 44.72748 29032 ft 501 kts 52°
2026-04-20 18:42 43.27716 44.75109 29032 ft 502 kts 48°
2026-04-20 18:42 43.32478 44.82131 29029 ft 502 kts 48°
2026-04-20 18:43 43.37236 44.89173 29026 ft 503 kts 48°
2026-04-20 18:43 43.41989 44.96250 29025 ft 504 kts 49°
2026-04-20 18:44 43.45883 45.04166 29017 ft 498 kts 69°
2026-04-20 18:44 43.47714 45.13225 29019 ft 487 kts 89°
2026-04-20 18:45 43.47454 45.22387 29022 ft 475 kts 107°
2026-04-20 18:45 43.46786 45.26848 29151 ft 479 kts 109°
2026-04-20 18:45 43.46006 45.31352 29018 ft 488 kts 110°
2026-04-20 18:46 43.44254 45.40499 29050 ft 501 kts 111°
2026-04-20 18:46 43.42454 45.49855 29506 ft 502 kts 111°
2026-04-20 18:47 43.41606 45.54375 30248 ft 478 kts 111°
2026-04-20 18:47 43.40813 45.58798 30449 ft 476 kts 110°
2026-04-20 18:47 43.40038 45.63197 29937 ft 471 kts 110°
2026-04-20 18:47 43.39266 45.67562 29364 ft 469 kts 110°
2026-04-20 18:48 43.38340 45.71766 29040 ft 462 kts 117°
2026-04-20 18:48 43.37179 45.75884 29058 ft 462 kts 118°
2026-04-20 18:48 43.34845 45.84124 29049 ft 463 kts 118°
2026-04-20 18:49 43.32502 45.92343 29058 ft 462 kts 118°
2026-04-20 18:49 43.30156 46.00550 29054 ft 461 kts 118°
2026-04-20 18:50 43.27807 46.08753 29050 ft 461 kts 118°
2026-04-20 18:50 43.25467 46.16945 29025 ft 461 kts 117°
2026-04-20 18:51 43.23132 46.25142 29042 ft 461 kts 117°
2026-04-20 18:51 43.20821 46.33279 29044 ft 460 kts 117°
2026-04-20 18:52 43.18482 46.41442 29048 ft 460 kts 117°
2026-04-20 18:52 43.16138 46.49590 29036 ft 459 kts 118°
2026-04-20 18:53 43.13785 46.57726 29049 ft 459 kts 118°
2026-04-20 18:53 43.11433 46.65856 29022 ft 459 kts 118°
2026-04-20 18:54 43.09087 46.73930 29042 ft 459 kts 118°
2026-04-20 18:54 43.06612 46.81958 29014 ft 454 kts 125°
2026-04-20 18:55 43.02909 46.88750 29039 ft 441 kts 142°
2026-04-20 18:55 43.00685 46.91645 28873 ft 443 kts 142°
2026-04-20 18:55 42.98450 46.94555 28462 ft 444 kts 142°
2026-04-20 18:56 42.96213 46.97477 28060 ft 445 kts 142°
2026-04-20 18:56 42.93975 47.00400 27680 ft 447 kts 142°
2026-04-20 18:56 42.91715 47.03343 27923 ft 449 kts 141°
2026-04-20 18:56 42.89448 47.06291 27757 ft 450 kts 141°
2026-04-20 18:57 42.87187 47.09236 27364 ft 449 kts 141°
2026-04-20 18:57 42.84922 47.12183 26960 ft 450 kts 141°
2026-04-20 18:57 42.82654 47.15131 26283 ft 451 kts 141°
2026-04-20 18:57 42.80414 47.18039 25621 ft 451 kts 141°
2026-04-20 18:58 42.78150 47.20976 25033 ft 447 kts 141°
2026-04-20 18:58 42.75904 47.23883 24577 ft 445 kts 141°
2026-04-20 18:58 42.73658 47.26782 24138 ft 443 kts 140°
2026-04-20 18:58 42.71426 47.29663 23681 ft 441 kts 140°
2026-04-20 18:59 42.69206 47.32528 23175 ft 439 kts 140°
2026-04-20 18:59 42.66992 47.35380 22658 ft 436 kts 140°
2026-04-20 18:59 42.64792 47.38210 22146 ft 434 kts 140°
2026-04-20 18:59 42.62610 47.41015 21649 ft 431 kts 140°
2026-04-20 19:00 42.60439 47.43802 21180 ft 428 kts 139°
2026-04-20 19:00 42.58288 47.46560 20664 ft 423 kts 140°
2026-04-20 19:00 42.56188 47.49256 20181 ft 405 kts 139°
2026-04-20 19:00 42.54215 47.51789 19725 ft 385 kts 139°
2026-04-20 19:01 42.52314 47.54226 19267 ft 367 kts 139°
2026-04-20 19:01 42.50495 47.56558 18818 ft 352 kts 139°
2026-04-20 19:01 42.48747 47.58791 18358 ft 339 kts 139°
2026-04-20 19:01 42.47056 47.60943 17851 ft 328 kts 139°
2026-04-20 19:02 42.45420 47.63025 17347 ft 318 kts 139°
2026-04-20 19:02 42.43968 47.65212 16998 ft 308 kts 125°
2026-04-20 19:02 42.42971 47.67666 17035 ft 287 kts 120°
2026-04-20 19:02 42.42053 47.70024 17053 ft 281 kts 121°
2026-04-20 19:03 42.41139 47.72354 17057 ft 280 kts 119°
2026-04-20 19:03 42.40496 47.74841 17054 ft 282 kts 103°
2026-04-20 19:03 42.40173 47.77497 16510 ft 288 kts 101°
2026-04-20 19:03 42.39885 47.80186 15923 ft 289 kts 100°
2026-04-20 19:04 42.39645 47.82888 15344 ft 290 kts 93°
2026-04-20 19:04 42.39851 47.85611 14785 ft 293 kts 78°
2026-04-20 19:04 42.40291 47.88304 14231 ft 293 kts 79°
2026-04-20 19:04 42.40718 47.90998 13666 ft 293 kts 79°
2026-04-20 19:05 42.41262 47.93648 13055 ft 292 kts 67°
2026-04-20 19:05 42.42252 47.96036 12443 ft 291 kts 58°
2026-04-20 19:05 42.43324 47.98360 11865 ft 291 kts 58°
2026-04-20 19:05 42.44377 48.00647 11324 ft 288 kts 57°
2026-04-20 19:06 42.45632 48.02720 10765 ft 284 kts 40°
2026-04-20 19:06 42.47153 48.04334 10453 ft 271 kts 37°
2026-04-20 19:06 42.48627 48.05889 10189 ft 267 kts 37°
2026-04-20 19:06 42.50076 48.07429 9924 ft 264 kts 37°
2026-04-20 19:07 42.51638 48.08680 9611 ft 260 kts 21°
2026-04-20 19:07 42.53345 48.09467 9240 ft 258 kts 17°
2026-04-20 19:07 42.55069 48.10093 8881 ft 256 kts
2026-04-20 19:07 42.56793 48.09682 8545 ft 253 kts 333°
2026-04-20 19:08 42.58109 48.08172 8240 ft 250 kts 304°
2026-04-20 19:08 42.58955 48.03615 7454 ft 252 kts 279°
2026-04-20 19:08 42.59195 48.01271 7103 ft 250 kts 279°
2026-04-20 19:09 42.59434 47.98937 6760 ft 249 kts 279°
2026-04-20 19:09 42.59758 47.96645 6420 ft 246 kts 290°
2026-04-20 19:09 42.60523 47.94646 6035 ft 233 kts 307°
2026-04-20 19:09 42.61464 47.92902 5646 ft 226 kts 307°
2026-04-20 19:10 42.62372 47.91210 5263 ft 222 kts 307°
2026-04-20 19:10 42.63264 47.89547 4884 ft 214 kts 307°
2026-04-20 19:10 42.64126 47.87940 4491 ft 207 kts 307°
2026-04-20 19:10 42.64963 47.86374 4102 ft 202 kts 307°
2026-04-20 19:11 42.65785 47.84843 3708 ft 199 kts 307°
2026-04-20 19:11 42.66595 47.83331 3341 ft 196 kts 306°
2026-04-20 19:11 42.67376 47.81871 2954 ft 187 kts 306°
2026-04-20 19:11 42.68130 47.80463 2539 ft 181 kts 304°
2026-04-20 19:12 42.68862 47.79096 2161 ft 177 kts 304°
2026-04-20 19:12 42.69563 47.77788 2005 ft 161 kts 304°
2026-04-20 19:12 42.70189 47.76620 2022 ft 146 kts 304°
2026-04-20 19:12 42.70826 47.75589 2006 ft 141 kts 317°
2026-04-20 19:13 42.71612 47.74782 2010 ft 141 kts 321°
2026-04-20 19:13 42.72398 47.73983 2009 ft 140 kts 321°
2026-04-20 19:13 42.73177 47.73190 2010 ft 140 kts 321°
2026-04-20 19:13 42.73951 47.72399 2012 ft 140 kts 321°
2026-04-20 19:14 42.74734 47.71600 1910 ft 141 kts 321°
2026-04-20 19:14 42.75511 47.70787 1688 ft 141 kts 320°
2026-04-20 19:14 42.76279 47.69962 1361 ft 141 kts 323°
2026-04-20 19:14 42.77076 47.69182 1005 ft 143 kts 324°
2026-04-20 19:15 42.77900 47.68426 662 ft 142 kts 328°
2026-04-20 19:15 42.78731 47.67725 426 ft 139 kts 326°
2026-04-20 19:15 42.79550 47.67042 318 ft 138 kts 327°
2026-04-20 19:15 42.80363 47.66356 142 ft 137 kts 327°
2026-04-20 19:16 42.81161 47.65678 25 ft 127 kts 329°
2026-04-20 19:16 42.81774 47.65163 17 ft 81 kts 327°
2026-04-20 19:16 42.82167 47.64828 19 ft 58 kts 328°
2026-04-20 19:16 42.82428 47.64604 18 ft 27 kts 329°
2026-04-20 19:17 42.82519 47.64556 18 ft 8 kts 321°
2026-04-20 19:17 42.82508 47.64541 18 ft 2 kts 191°
2026-04-20 19:17 42.82473 47.64568 18 ft 7 kts 143°
2026-04-20 19:17 42.82417 47.64618 19 ft 12 kts 148°
2026-04-20 19:18 42.82314 47.64705 20 ft 25 kts 147°
2026-04-20 19:18 42.82157 47.64843 19 ft 28 kts 148°
2026-04-20 19:18 42.81980 47.64989 17 ft 30 kts 146°
2026-04-20 19:18 42.81918 47.65102 18 ft 11 kts 73°
2026-04-20 19:19 42.81951 47.65184 20 ft 9 kts 57°
2026-04-20 19:19 42.81981 47.65248 20 ft 7 kts 58°
2026-04-20 19:19 42.82005 47.65303 20 ft 6 kts 58°
2026-04-20 19:19 42.82027 47.65349 20 ft 5 kts 58°
2026-04-20 19:20 42.82028 47.65386 20 ft 3 kts 118°
2026-04-20 19:20 42.82019 47.65409 22 ft 2 kts 126°
2026-04-20 19:20 42.82009 47.65420 21 ft 1 kts 142°
2026-04-20 19:20 42.82003 47.65425 20 ft 2 kts 149°
2026-04-20 19:21 42.81957 47.65459 20 ft 9 kts 146°
2026-04-20 19:21 42.81938 47.65491 20 ft 2 kts 110°
2026-04-20 19:21 42.81937 47.65502 20 ft 1 kts 91°
2026-04-20 19:21 42.81942 47.65517 20 ft 3 kts 65°
2026-04-20 19:22 42.81950 47.65536 22 ft 2 kts 59°
2026-04-20 19:22 42.81955 47.65548 22 ft 1 kts 58°
2026-04-20 19:22 42.81958 47.65553 22 ft 0 kts 57°
2026-04-20 19:22 42.81958 47.65554 22 ft 0 kts 57°
2026-04-20 19:23 42.81963 47.65564 20 ft 1 kts 57°
2026-04-20 19:23 42.81965 47.65568 20 ft 0 kts 57°
2026-04-20 19:23 42.81965 47.65569 20 ft 0 kts 57°